Location: Milano
(45.4670°N, 9.2000°E)
Time: 17:40:17
(UTC+02:00)

ISS - Visible Passes

Search period start: 15 May 2021 00:00
Search period end: 25 May 2021 00:00
Orbit: 417 x 422 km, 51.6° (Epoch: 15 May)

Date Brightness Start Highest point End Pass type
(mag) Time Alt. Az. Time Alt. Az. Time Alt. Az.
15 May -2.1 00:27:17 10° W 00:30:26 35° NNW 00:33:34 10° NE visible
15 May -1.7 02:04:50 10° NW 02:07:49 28° N 02:10:49 10° ENE visible
15 May -3.4 03:41:41 10° WNW 03:45:03 67° NNE 03:48:25 10° ESE visible
15 May -3.3 22:02:55 10° SSW 22:06:04 39° SE 22:09:15 10° ENE visible
15 May -2.6 23:39:38 10° W 23:42:52 43° NNW 23:46:08 10° NE visible
16 May -1.6 01:17:17 10° WNW 01:20:13 27° N 01:23:11 10° ENE visible
16 May -2.8 02:54:15 10° NW 02:57:32 48° NNE 03:00:50 10° E visible
16 May -3.1 04:31:11 10° WNW 04:34:17 33° SW 04:37:22 10° SSE visible
16 May -3.2 22:52:01 10° WSW 22:55:21 59° NNW 22:58:41 10° ENE visible
17 May -1.6 00:29:38 10° WNW 00:32:37 28° N 00:35:35 10° ENE visible
17 May -2.3 02:06:49 10° NW 02:10:00 37° NNE 02:13:11 10° E visible
17 May -3.7 03:43:36 10° WNW 03:46:55 53° SW 03:50:12 10° SE visible
17 May -3.7 22:04:30 10° WSW 22:07:52 85° NNW 22:11:15 10° ENE visible
17 May -1.8 23:41:58 10° WNW 23:45:00 30° N 23:48:02 10° NE visible
18 May -1.9 01:19:20 10° NW 01:22:25 31° N 01:22:52 30° NNE visible
18 May -2.0 22:54:17 10° W 22:57:24 35° NNW 23:00:33 10° NE visible
19 May -1.7 00:31:49 10° NW 00:34:48 28° N 00:36:27 19° NE visible
19 May -1.2 02:08:39 10° WNW 02:09:22 15° NW 02:09:22 15° NW visible
19 May -2.5 22:06:36 10° W 22:09:50 43° NNW 22:13:05 10° NE visible
19 May -1.6 23:44:14 10° WNW 23:47:11 27° N 23:50:08 10° ENE visible
20 May -2.0 01:21:13 10° NW 01:23:10 29° NW 01:23:10 29° NW visible
20 May -1.6 22:56:35 10° WNW 22:59:33 28° N 23:02:31 10° ENE visible
21 May -2.4 00:33:45 10° NW 00:36:56 37° NNE 00:37:05 37° NNE visible
21 May -1.8 22:08:54 10° WNW 22:11:55 30° N 22:14:57 10° NE visible
21 May -2.0 23:46:16 10° NW 23:49:20 31° N 23:51:01 20° ENE visible
22 May -1.3 01:23:01 10° WNW 01:23:57 17° WNW 01:23:57 17° WNW visible
22 May -1.8 22:58:43 10° NW 23:01:43 28° N 23:04:42 10° ENE visible
23 May -2.6 00:35:33 10° WNW 00:37:56 41° NW 00:37:56 41° NW visible
23 May -1.7 22:11:08 10° WNW 22:14:04 27° N 22:17:01 10° ENE visible
23 May -3.0 23:48:05 10° NW 23:51:23 48° NNE 23:51:56 43° NE visible
24 May -2.4 23:00:37 10° NW 23:03:48 37° NNE 23:05:58 17° ENE visible
